Terminal Aerodrome Forecast
Issued by NWS Twin Cities, MN

Home | Current Version | Previous Version | Graphics & Text | Print | Product List | Glossary On
Versions: 1 2 3 4 5 6 7 8 9 10 11 12 13 14 15 16 17
000
FTUS43 KMPX 290425 AAB
TAFSTC
TAF AMD
KSTC 290425Z 2904/2924 00000KT 3SM BR FEW050
      TEMPO 2905/2909 6SM BR
     FM290900 31004KT 6SM BR SKC
     FM291300 31007KT P6SM BKN100
     FM292000 31010G18KT P6SM VCTS SCT050CB BKN120=

USA.gov is the U.S. government's official web portal to all federal, state and local government web resources and services.